User: anonymous   Login
Location: La Oliva
(42.2466°N, 2.9955°E)
Time: 14:13:42
(UTC+00:00)
Language:

Cosmos 2263 Rocket - Orbit

View from above orbital plane
View from above orbital plane
View from above satellite
View from above satellite

Ground track
Ground track

The orbit data is extracted from the following two-line orbital elements,

1 22803U 93059B   21170.66964514 -.00000029  00000-0  94853-5 0  9999
2 22803  70.9912  45.3836 0018874 311.8582  48.0930 14.16838882435319
Epoch (UTC): 19 June 2021 16:04:17
Eccentricity: 0.0018874
inclination: 70.9912°
perigee height: 822 km
apogee height: 849 km
right ascension of ascending node: 45.3836°
argument of perigee: 311.8582°
revolutions per day: 14.16838882
mean anomaly at epoch: 48.0930°
orbit number at epoch: 43531

The dashed part of the orbit path shows where the satellite is in the earth's shadow,  

DLR